Location: Gorlice
(49.6633°N, 21.1693°E)
Time: 05:22:57
(UTC+02:00)

ISS - Visible Passes

Search period start: 28 May 2018 00:00
Search period end: 07 June 2018 00:00
Orbit: 402 x 407 km, 51.6° (Epoch: 28 May)

Date Brightness Start Highest point End Pass type
(mag) Time Alt. Az. Time Alt. Az. Time Alt. Az.
28 May -1.2 01:08:08 10° W 01:08:21 11° W 01:08:21 11° W visible
28 May -3.6 22:39:10 10° WNW 22:42:26 68° N 22:45:05 15° E visible
29 May -2.5 00:15:44 10° W 00:17:42 29° WSW 00:17:42 29° WSW visible
29 May -3.3 21:46:55 10° WNW 21:50:10 60° N 21:53:25 10° E visible
29 May -3.9 23:23:27 10° WNW 23:26:42 62° SSW 23:27:05 55° SSE visible
30 May -3.9 22:31:12 10° WNW 22:34:29 87° S 22:36:31 21° ESE visible
31 May -1.7 00:08:02 10° W 00:09:09 16° WSW 00:09:09 16° WSW visible
31 May -3.6 21:38:56 10° WNW 21:42:13 73° NNE 21:45:29 10° E visible
31 May -3.1 23:15:33 10° W 23:18:33 34° SSW 23:18:34 34° SSW visible
01 Jun -3.6 22:23:10 10° WNW 22:26:24 53° SSW 22:28:02 25° SE visible
02 Jun -3.9 21:30:52 10° WNW 21:34:09 78° SSW 21:37:25 10° ESE visible
02 Jun -2.0 23:07:51 10° W 23:10:09 19° SW 23:10:09 19° SW visible
03 Jun -2.7 22:15:14 10° W 22:18:09 29° SW 22:19:40 20° SSE visible
04 Jun -3.3 21:22:47 10° WNW 21:25:58 46° SSW 21:29:06 10° SE visible
05 Jun -1.7 22:07:38 10° W 22:09:44 16° SW 22:11:24 12° S visible
